• In Kazakhstan
  • List of Countries
  • For 7 days
  • Water Temperature
  • Weather Map
  • News
  • Weather Widgets
  • user-avatar
    Login

    Hourly Weather Samos

    Today, 23 September, Monday

    Time Temperature Precipitation Wind Pressure Humidity
    00:00 +14°C° 0 mm 4 mps 721 mmHg 55%
    01:00 +14°C° 0 mm 4 mps 721 mmHg 55%
    02:00 +14°C° 0 mm 4 mps 721 mmHg 54%
    03:00 +13°C° 0 mm 4 mps 721 mmHg 52%
    04:00 +13°C° 0 mm 4 mps 721 mmHg 50%
    05:00 +12°C° 0 mm 3 mps 721 mmHg 49%
    06:00 +14°C° 0 mm 3 mps 721 mmHg 45%
    07:00 +16°C° 0 mm 3 mps 721 mmHg 42%
    08:00 +17°C° 0 mm 3 mps 722 mmHg 38%
    09:00 +19°C° 0 mm 3 mps 722 mmHg 37%
    10:00 +20°C° 0 mm 3 mps 722 mmHg 35%
    11:00 +22°C° 0 mm 3 mps 721 mmHg 34%
    12:00 +22°C° 0 mm 4 mps 721 mmHg 35%
    13:00 +22°C° 0 mm 4 mps 721 mmHg 36%
    14:00 +22°C° 0 mm 5 mps 721 mmHg 37%
    15:00 +22°C° 0 mm 5 mps 720 mmHg 42%
    16:00 +21°C° 0 mm 5 mps 720 mmHg 47%
    17:00 +20°C° 0 mm 5 mps 720 mmHg 51%
    18:00 +19°C° 0 mm 4 mps 720 mmHg 58%
    19:00 +18°C° 0 mm 3 mps 720 mmHg 64%
    20:00 +17°C° 0 mm 2 mps 720 mmHg 70%
    21:00 +16°C° 0 mm 2 mps 720 mmHg 69%
    22:00 +16°C° 0 mm 1 mps 720 mmHg 68%
    23:00 +16°C° 0 mm 1 mps 720 mmHg 68%

    Tomorrow, 24 September, Tuesday

    Time Temperature Precipitation Wind Pressure Humidity
    00:00 +16°C° 0 mm 1 mps 720 mmHg 67%
    01:00 +15°C° 0 mm 1 mps 719 mmHg 65%
    02:00 +15°C° 0 mm 1 mps 719 mmHg 64%
    03:00 +15°C° 0 mm 1 mps 719 mmHg 62%
    04:00 +15°C° 0 mm 2 mps 719 mmHg 61%
    05:00 +14°C° 0 mm 3 mps 718 mmHg 60%
    06:00 +16°C° 0 mm 3 mps 718 mmHg 54%
    07:00 +18°C° 0 mm 3 mps 718 mmHg 48%
    08:00 +19°C° 0 mm 3 mps 718 mmHg 42%
    09:00 +21°C° 0 mm 4 mps 718 mmHg 42%
    10:00 +23°C° 0 mm 4 mps 718 mmHg 42%
    11:00 +26°C° 0 mm 4 mps 718 mmHg 41%
    12:00 +26°C° 0 mm 4 mps 718 mmHg 48%
    13:00 +25°C° 0 mm 4 mps 718 mmHg 54%
    14:00 +25°C° 0 mm 5 mps 717 mmHg 60%
    15:00 +23°C° 0 mm 4 mps 717 mmHg 67%
    16:00 +23°C° 0 mm 4 mps 716 mmHg 74%
    17:00 +22°C° 0 mm 4 mps 716 mmHg 81%
    18:00 +21°C° 0.2 mm 4 mps 716 mmHg 84%
    19:00 +21°C° 0.2 mm 4 mps 716 mmHg 88%
    20:00 +20°C° 0.2 mm 4 mps 716 mmHg 91%
    21:00 +20°C° 1 mm 4 mps 716 mmHg 91%
    22:00 +20°C° 1 mm 4 mps 716 mmHg 92%
    23:00 +20°C° 1 mm 4 mps 716 mmHg 92%

    Day after tomorrow, 25 September, Wednesday

    Time Temperature Precipitation Wind Pressure Humidity
    00:00 +19°C° 1.7 mm 4 mps 716 mmHg 91%
    01:00 +19°C° 1.7 mm 4 mps 716 mmHg 91%
    02:00 +19°C° 1.7 mm 4 mps 715 mmHg 91%
    03:00 +19°C° 0.4 mm 4 mps 715 mmHg 90%
    04:00 +19°C° 0.4 mm 4 mps 715 mmHg 89%
    05:00 +18°C° 0.4 mm 4 mps 715 mmHg 88%
    06:00 +19°C° 0.3 mm 4 mps 716 mmHg 84%
    07:00 +20°C° 0.3 mm 4 mps 716 mmHg 81%
    08:00 +21°C° 0.3 mm 4 mps 716 mmHg 77%
    09:00 +22°C° 0 mm 4 mps 716 mmHg 72%
    10:00 +24°C° 0 mm 3 mps 717 mmHg 67%
    11:00 +25°C° 0 mm 2 mps 717 mmHg 61%
    12:00 +25°C° 0 mm 2 mps 717 mmHg 61%
    13:00 +25°C° 0 mm 2 mps 717 mmHg 60%
    14:00 +25°C° 0 mm 2 mps 717 mmHg 59%
    15:00 +24°C° 0 mm 2 mps 717 mmHg 64%
    16:00 +24°C° 0 mm 3 mps 717 mmHg 68%
    17:00 +22°C° 0 mm 3 mps 717 mmHg 73%
    18:00 +21°C° 0 mm 3 mps 717 mmHg 78%
    19:00 +20°C° 0 mm 3 mps 717 mmHg 82%
    20:00 +19°C° 0 mm 3 mps 718 mmHg 87%
    21:00 +19°C° 0 mm 2 mps 718 mmHg 87%
    22:00 +19°C° 0 mm 2 mps 718 mmHg 87%
    23:00 +19°C° 0 mm 2 mps 718 mmHg 88%

    26 September, Thursday

    Time Temperature Precipitation Wind Pressure Humidity
    00:00 +19°C° 0 mm 2 mps 718 mmHg 87%
    01:00 +19°C° 0 mm 2 mps 718 mmHg 86%
    02:00 +18°C° 0 mm 2 mps 718 mmHg 86%
    03:00 +18°C° 0 mm 2 mps 718 mmHg 86%
    04:00 +18°C° 0 mm 2 mps 718 mmHg 85%
    05:00 +18°C° 0 mm 2 mps 718 mmHg 85%
    06:00 +19°C° 0 mm 2 mps 719 mmHg 82%
    07:00 +19°C° 0 mm 2 mps 719 mmHg 78%
    08:00 +20°C° 0 mm 2 mps 719 mmHg 75%
    09:00 +21°C° 0 mm 2 mps 719 mmHg 71%
    10:00 +23°C° 0 mm 2 mps 720 mmHg 67%
    11:00 +24°C° 0 mm 2 mps 720 mmHg 64%
    12:00 +24°C° 0 mm 2 mps 720 mmHg 64%
    13:00 +24°C° 0 mm 3 mps 719 mmHg 63%
    14:00 +24°C° 0 mm 3 mps 719 mmHg 63%
    15:00 +22°C° 0 mm 3 mps 719 mmHg 65%
    16:00 +21°C° 0 mm 3 mps 719 mmHg 66%
    17:00 +21°C° 0 mm 2 mps 719 mmHg 68%
    18:00 +20°C° 0 mm 2 mps 719 mmHg 72%
    19:00 +20°C° 0 mm 1 mps 719 mmHg 76%
    20:00 +19°C° 0 mm 1 mps 719 mmHg 81%
    21:00 +19°C° 0 mm 1 mps 719 mmHg 81%
    22:00 +19°C° 0 mm 1 mps 719 mmHg 82%
    23:00 +17°C° 0 mm 0 mps 719 mmHg 82%

    27 September, Friday

    Time Temperature Precipitation Wind Pressure Humidity
    00:00 +16°C° 0 mm 0 mps 719 mmHg 82%
    01:00 +18°C° 0 mm 1 mps 719 mmHg 82%
    02:00 +18°C° 0 mm 1 mps 719 mmHg 81%
    03:00 +18°C° 0 mm 1 mps 719 mmHg 81%
    04:00 +18°C° 0 mm 1 mps 719 mmHg 80%
    05:00 +18°C° 0 mm 1 mps 719 mmHg 80%
    06:00 +19°C° 0 mm 1 mps 719 mmHg 75%
    07:00 +20°C° 0 mm 1 mps 719 mmHg 70%
    08:00 +20°C° 0 mm 1 mps 719 mmHg 65%
    09:00 +22°C° 0 mm 1 mps 719 mmHg 60%
    10:00 +23°C° 0 mm 2 mps 720 mmHg 56%
    11:00 +24°C° 0 mm 2 mps 720 mmHg 51%
    12:00 +24°C° 0 mm 3 mps 720 mmHg 52%
    13:00 +25°C° 0 mm 4 mps 720 mmHg 52%
    14:00 +25°C° 0 mm 4 mps 719 mmHg 52%
    15:00 +23°C° 0 mm 5 mps 719 mmHg 57%
    16:00 +22°C° 0 mm 5 mps 719 mmHg 61%
    17:00 +22°C° 0 mm 5 mps 719 mmHg 65%
    18:00 +21°C° 0 mm 5 mps 720 mmHg 67%
    19:00 +20°C° 0 mm 5 mps 720 mmHg 70%
    20:00 +20°C° 0 mm 5 mps 720 mmHg 72%
    21:00 +19°C° 0 mm 4 mps 720 mmHg 73%
    22:00 +19°C° 0 mm 4 mps 721 mmHg 74%
    23:00 +19°C° 0 mm 4 mps 721 mmHg 75%

    28 September, Saturday

    Time Temperature Precipitation Wind Pressure Humidity
    00:00 +19°C° 0 mm 4 mps 721 mmHg 74%
    01:00 +18°C° 0 mm 4 mps 721 mmHg 73%
    02:00 +18°C° 0 mm 4 mps 721 mmHg 72%
    03:00 +18°C° 0 mm 4 mps 721 mmHg 70%
    04:00 +16°C° 0 mm 5 mps 721 mmHg 67%
    05:00 +16°C° 0 mm 5 mps 721 mmHg 65%
    06:00 +17°C° 0 mm 5 mps 721 mmHg 61%
    07:00 +19°C° 0 mm 5 mps 721 mmHg 58%
    08:00 +19°C° 0 mm 5 mps 721 mmHg 55%
    09:00 +21°C° 0 mm 5 mps 721 mmHg 52%
    10:00 +22°C° 0 mm 5 mps 721 mmHg 48%
    11:00 +23°C° 0 mm 5 mps 722 mmHg 45%
    12:00 +25°C° 0 mm 5 mps 721 mmHg 43%
    13:00 +26°C° 0 mm 6 mps 721 mmHg 42%
    14:00 +26°C° 0 mm 6 mps 721 mmHg 40%
    15:00 +26°C° 0 mm 6 mps 720 mmHg 43%
    16:00 +24°C° 0 mm 7 mps 720 mmHg 45%
    17:00 +24°C° 0 mm 7 mps 720 mmHg 47%
    18:00 +22°C° 0 mm 7 mps 720 mmHg 52%
    19:00 +21°C° 0 mm 7 mps 720 mmHg 57%
    20:00 +20°C° 0 mm 6 mps 720 mmHg 61%
    21:00 +19°C° 0 mm 6 mps 720 mmHg 63%
    22:00 +19°C° 0 mm 6 mps 720 mmHg 65%
    23:00 +17°C° 0 mm 5 mps 720 mmHg 67%
    Show more